English version Home page |
Updated on August 27, 2022 |
プロフィール
|
軌道要素Epoch 2022 Aug. 9.0 TT = JDT 2459800.5 T 2018 Nov. 6.53419 TT Rudenko q 5.4725312 (2000.0) P Q n 0.01812155 Peri. 290.77885 +0.43615470 -0.07428128 a 14.3550857 Node 85.10780 +0.62717010 +0.73975999 e 0.6187740 Incl. 64.16854 -0.64531136 +0.66875814 P 54.4 From 803 observations 2017 Aug. 2-2019 Mar. 10, mean residual 0".2.
|
光度変化m1 = 7.0 + 5 logΔ + 10.0 log r
|
軌道要素はM.P.E.C. 2022-Q126に掲載されたものです。
|